STARLINK-32662 (62215 NORAD) Tracking and Keplerian Element Data

This shows tracking and keplerian element data for the satellite.

Feedback or suggestion? Click here.




ElementValue
Catalog62215
NameSTARLINK-32662
Epoch Orbit1047
Epoch Day34.19087651
Epoch Year2025
RAAN7.6918
Inclination43.0033
Eccentricity0.0001091
Argument of Perigee254.1958
Mean Anonmoly105.8775
Mean Motion15.32093707
Decay Rate-1.65E-06
L11 62215U 24229Z 25034.19087651 -.00000165 00000+0 34744-5 0 9995
L22 62215 43.0033 7.6918 0001091 254.1958 105.8775 15.32093707 10479



Live tracking and technical data element details for STARLINK-32662 (NORAD 62215). STARLINK-32662 can be tracked NOW for your location showing map with azimuth and elevation plus other details from your city location.







IsCatalogInMostPopularTable: catalog: 62215, numindb: 18
Update: records affected: 1



GetName: 62215 STARLINK-32662

Hit Count: updated at: Sun, 18 May 2025 23:03:44 GMT